User: anonymous   Login
Location: Unspecified
(0.0000°N, 0.0000°E)
Time: 00:19:47
(UTC+00:00)
Language:

TBA - TO BE ASSIGNED - Orbit

View from above orbital plane
View from above orbital plane
View from above satellite
View from above satellite

Ground track
Ground track

The orbit is defined by the following mean orbital elements,

1 67514U          26145.59949529 +.00000000 +00000-0 +65052-3 0 00007
2 67514  43.0010 240.1064 0001821 272.6931  87.3712 15.27597188    03
Epoch (UTC): 25 May 2026 14:23:16
Eccentricity: 0.0001821
inclination: 43.0010°
perigee height: 482 km
apogee height: 484 km
right ascension of ascending node: 240.1064°
argument of perigee: 272.6931°
revolutions per day: 15.27597188
mean anomaly at epoch: 87.3712°

The dashed part of the orbit path shows where the satellite is in the earth's shadow,  

DLR